Charles City, IA

11:21 PM CST on February 09, 2016 (GMT -0600)
Charles City Municipal

Weather History for KCCY - November, 2013

Change the Weather History Date:

Friday, November 1, 2013

  Actual Average Record
Temperature  
Mean Temperature 44 °F -  
Max Temperature 51 °F 52 °F 73 °F (1990)
Min Temperature 37 °F 36 °F 14 °F (1951)
Degree Days  
Heating Degree Days 21    
Moisture  
Dew Point 36 °F    
Average Humidity 76    
Maximum Humidity 93    
Minimum Humidity 50    
Precipitation  
Precipitation 0.00 in - - ()
Sea Level Pressure  
Sea Level Pressure 29.66 in    
Wind  
Wind Speed 12 mph (WNW)    
Max Wind Speed 20 mph    
Max Gust Speed 25 mph    
Visibility 10 miles    
Events      
Averages and records for this station are not official NWS values.
T = Trace of Precipitation, MM = Missing Value Source: NWS Daily Summary

Daily Weather History Graph

Daily Weather History Graph

Search for Another Location

Airport or City:

Trip Planner

Search our weather history database for the weather conditions in past years. The results will help you decide how hot, cold, wet, or windy it might be!

Date:

Astronomy

Nov. 01, 2013 Rise Set
Actual Time 7:45 AM CDT 6:01 PM CDT
Civil Twilight 7:15 AM CDT 6:31 PM CDT
Nautical Twilight 6:42 AM CDT 7:05 PM CDT
Astronomical Twilight 6:09 AM CDT 7:38 PM CDT
Moon 5:35 AM CDT (11/1) 4:57 PM CDT (11/1)
Length of Visible Light 11h 15m
Length of Day
10h 16m
Waning Crescent, 4% of the Moon is Illuminated
Nov 1
Waning Crescent
Nov 3
New
Nov 9
First Quarter
Nov 17
Full
Nov 25
Last Quarter

Hourly Weather History & Observations

Time (CDT) Temp. Windchill Dew Point Humidity Pressure Visibility Wind Dir Wind Speed Gust Speed Precip Events Conditions
12:15 AM 41.0 °F 33.1 °F 37.4 °F 87% 29.45 in 10.0 mi West 15.0 mph - N/A   Overcast
1:15 AM 41.0 °F 33.9 °F 37.4 °F 87% 29.46 in 10.0 mi West 12.7 mph 18.4 mph N/A   Overcast
4:35 AM 41.0 °F 34.3 °F 37.4 °F 87% 29.50 in 10.0 mi WNW 11.5 mph 18.4 mph N/A   Overcast
4:55 AM 41.0 °F 33.5 °F 37.4 °F 87% 29.51 in 10.0 mi WNW 13.8 mph - N/A   Overcast
5:15 AM 41.0 °F 34.3 °F 37.4 °F 87% 29.52 in 10.0 mi WNW 11.5 mph 17.3 mph N/A   Overcast
5:35 AM 41.0 °F 33.5 °F 37.4 °F 87% 29.53 in 10.0 mi WNW 13.8 mph - N/A   Overcast
5:55 AM 41.0 °F 34.3 °F 37.4 °F 87% 29.53 in 10.0 mi WNW 11.5 mph - N/A   Overcast
6:15 AM 41.0 °F 34.3 °F 37.4 °F 87% 29.54 in 10.0 mi WNW 11.5 mph - N/A   Overcast
6:35 AM 41.0 °F 34.3 °F 37.4 °F 87% 29.55 in 10.0 mi WNW 11.5 mph 20.7 mph N/A   Overcast
6:55 AM 41.0 °F 34.7 °F 37.4 °F 87% 29.56 in 10.0 mi WNW 10.4 mph 18.4 mph N/A   Overcast
7:15 AM 41.0 °F 33.9 °F 37.4 °F 87% 29.56 in 10.0 mi WNW 12.7 mph - N/A   Overcast
7:35 AM 41.0 °F 34.7 °F 37.4 °F 87% 29.57 in - WNW 10.4 mph - N/A   Overcast
7:55 AM 41.0 °F 34.7 °F 37.4 °F 87% 29.57 in 8.0 mi WNW 10.4 mph - N/A   Overcast
8:15 AM 41.0 °F 33.5 °F 37.4 °F 87% 29.58 in 8.0 mi WNW 13.8 mph - N/A   Overcast
8:35 AM 41.0 °F 34.3 °F 37.4 °F 87% 29.59 in 8.0 mi WNW 11.5 mph - N/A   Mostly Cloudy
8:55 AM 41.0 °F 34.7 °F 37.4 °F 87% 29.60 in 8.0 mi WNW 10.4 mph - N/A   Mostly Cloudy
9:15 AM 41.0 °F 36.4 °F 37.4 °F 87% 29.60 in 9.0 mi WNW 6.9 mph - N/A   Overcast
9:35 AM 42.8 °F 37.0 °F 37.4 °F 81% 29.61 in 9.0 mi WNW 10.4 mph - N/A   Partly Cloudy
9:55 AM 42.8 °F 35.8 °F 37.4 °F 81% 29.61 in 9.0 mi WNW 13.8 mph - N/A   Partly Cloudy
10:15 AM 42.8 °F 37.0 °F 37.4 °F 81% 29.61 in 9.0 mi West 10.4 mph - N/A   Mostly Cloudy
10:35 AM 44.6 °F 38.4 °F 37.4 °F 76% 29.62 in 9.0 mi West 12.7 mph - N/A   Overcast
10:55 AM 44.6 °F 39.7 °F 37.4 °F 76% 29.62 in 9.0 mi West 9.2 mph 17.3 mph N/A   Mostly Cloudy
11:15 AM 44.6 °F 38.1 °F 37.4 °F 76% 29.63 in 9.0 mi West 13.8 mph 19.6 mph N/A   Overcast
11:35 AM 46.4 °F 40.4 °F 37.4 °F 71% 29.64 in 10.0 mi West 13.8 mph - N/A   Overcast
11:55 AM 46.4 °F 40.7 °F 37.4 °F 71% 29.64 in 10.0 mi WNW 12.7 mph 19.6 mph N/A   Overcast
12:15 PM 46.4 °F 39.8 °F 35.6 °F 66% 29.65 in 10.0 mi WNW 16.1 mph 23.0 mph N/A   Scattered Clouds
12:35 PM 48.2 °F - 35.6 °F 62% 29.65 in 10.0 mi WNW 19.6 mph - N/A   Mostly Cloudy
12:55 PM 48.2 °F - 35.6 °F 62% 29.65 in 10.0 mi WNW 15.0 mph 23.0 mph N/A   Overcast
1:15 PM 50.0 °F - 35.6 °F 58% 29.65 in 10.0 mi NW 18.4 mph - N/A   Overcast
1:35 PM 50.0 °F - 33.8 °F 54% 29.65 in 10.0 mi WNW 15.0 mph 23.0 mph N/A   Overcast
1:55 PM 50.0 °F - 33.8 °F 54% 29.65 in 10.0 mi NW 18.4 mph - N/A   Overcast
2:15 PM 50.0 °F - 33.8 °F 54% 29.66 in 10.0 mi NW 17.3 mph 25.3 mph N/A   Overcast
2:35 PM 50.0 °F - 33.8 °F 54% 29.66 in 10.0 mi WNW 18.4 mph 24.2 mph N/A   Overcast
2:55 PM 51.8 °F - 33.8 °F 50% 29.66 in 10.0 mi WNW 17.3 mph 24.2 mph N/A   Overcast
3:15 PM 50.0 °F - 33.8 °F 54% 29.67 in 10.0 mi WNW 13.8 mph 21.9 mph N/A   Mostly Cloudy
5:15 PM 50.0 °F - 33.8 °F 54% 29.70 in 10.0 mi WNW 8.1 mph - N/A   Clear
5:35 PM 50.0 °F - 33.8 °F 54% 29.70 in 10.0 mi WNW 5.8 mph 12.7 mph N/A   Scattered Clouds
5:55 PM 48.2 °F - 35.6 °F 62% 29.71 in - WNW 5.8 mph - N/A   Scattered Clouds
6:15 PM 48.2 °F - 35.6 °F 62% 29.71 in 10.0 mi WNW 5.8 mph - N/A   Overcast
6:35 PM 46.4 °F 42.9 °F 35.6 °F 66% 29.72 in 10.0 mi WNW 6.9 mph - N/A   Scattered Clouds
6:55 PM 44.6 °F 40.7 °F 35.6 °F 71% 29.73 in 10.0 mi WNW 6.9 mph - N/A   Clear
7:15 PM 44.6 °F 42.2 °F 35.6 °F 71% 29.73 in 10.0 mi WNW 4.6 mph - N/A   Clear
7:35 PM 42.8 °F 38.6 °F 33.8 °F 70% 29.74 in 10.0 mi WNW 6.9 mph - N/A   Clear
7:55 PM 42.8 °F 38.0 °F 35.6 °F 76% 29.75 in 10.0 mi West 8.1 mph - N/A   Partly Cloudy
8:15 PM 42.8 °F 37.5 °F 35.6 °F 76% 29.76 in 10.0 mi WNW 9.2 mph - N/A   Clear
8:35 PM 42.8 °F 37.5 °F 35.6 °F 76% 29.76 in 10.0 mi WNW 9.2 mph - N/A   Clear
8:55 PM 42.8 °F 38.0 °F 35.6 °F 76% 29.76 in 10.0 mi NW 8.1 mph - N/A   Mostly Cloudy
9:15 PM 42.8 °F 38.0 °F 35.6 °F 76% 29.77 in 10.0 mi WNW 8.1 mph - N/A   Mostly Cloudy
9:35 PM 39.2 °F 34.2 °F 35.6 °F 87% 29.78 in 10.0 mi WNW 6.9 mph - N/A   Clear
9:55 PM 39.2 °F 35.9 °F 35.6 °F 87% 29.78 in 10.0 mi WNW 4.6 mph - N/A   Clear
10:15 PM 39.2 °F 34.2 °F 35.6 °F 87% 29.79 in 10.0 mi West 6.9 mph - N/A   Clear
10:35 PM 37.4 °F 32.1 °F 35.6 °F 93% 29.80 in 10.0 mi WNW 6.9 mph - N/A   Clear
10:55 PM 37.4 °F 32.1 °F 35.6 °F 93% 29.81 in 10.0 mi WNW 6.9 mph - N/A   Clear
11:15 PM 39.2 °F 33.6 °F 35.6 °F 87% 29.81 in 10.0 mi WNW 8.1 mph - N/A   Clear
11:35 PM 37.4 °F 32.1 °F 33.8 °F 87% 29.82 in 10.0 mi WNW 6.9 mph - N/A   Scattered Clouds
11:55 PM 39.2 °F 33.0 °F 35.6 °F 87% 29.82 in 10.0 mi NW 9.2 mph - N/A   Overcast